Theta_e
263 262 262 261 261 261 261 262 262 263 263 263 263 264 264 265 266 267 268 271 273 274 274 274 273 273 274 273 272 273 273 272 272 272 272 272 272 272 273 272 271 269 269 271 273 273 273 272 273 272 273 272 272 272 272 275 273 273 272 272 272 272 275
262 262 261 261 261 261 261 261 261 262 263 262 262 262 262 262 263 264 265 269 270 272 273 274 273 273 273 273 272 273 272 272 272 271 271 272 272 272 272 273 271 270 269 268 271 271 273 272 272 272 273 271 272 272 272 271 271 271 271 271 271 271 271
261 261 261 260 260 260 260 261 261 261 261 261 260 260 260 261 261 262 263 264 267 270 272 273 273 273 273 273 272 272 272 272 271 271 271 271 272 272 272 273 273 271 269 269 269 272 271 272 271 271 272 272 273 273 273 271 270 270 270 271 271 271 271
260 260 260 259 259 260 260 260 260 260 260 260 260 260 260 261 261 262 262 263 264 265 268 270 272 272 273 272 272 271 271 271 271 271 271 271 271 272 272 273 273 273 271 270 269 271 271 272 271 271 273 273 273 272 271 271 270 269 268 269 270 271 270
260 259 259 259 259 259 259 259 259 259 260 260 261 261 261 261 262 262 262 263 263 264 265 267 270 272 273 272 271 271 271 271 270 270 271 271 271 271 272 273 273 272 272 271 270 270 271 272 271 272 272 272 271 270 269 268 268 269 269 269 269 270 271
259 259 258 258 258 258 258 259 259 259 259 260 260 260 260 260 261 262 262 263 263 263 263 265 267 271 272 272 271 271 271 270 270 270 270 270 271 271 272 272 272 272 272 271 271 270 270 271 270 269 269 271 271 270 268 268 267 265 265 266 266 268 269
258 258 258 258 258 258 258 258 258 258 259 259 259 259 259 259 259 260 260 261 262 263 263 264 265 267 271 272 272 271 270 270 270 270 269 270 270 271 271 271 271 272 271 271 270 270 271 270 270 270 269 270 271 270 270 269 267 266 266 267 267 267 268
257 258 258 257 257 258 258 258 258 258 258 258 258 258 258 259 259 260 261 262 263 264 265 266 267 269 269 271 272 272 271 271 270 270 269 270 270 271 271 271 271 271 271 270 270 270 269 270 269 270 271 270 269 268 267 268 268 267 267 266 267 267 267
257 257 256 257 257 257 257 257 257 257 257 257 258 259 260 260 261 262 262 263 264 265 266 266 266 267 268 270 273 273 273 273 273 271 270 270 271 271 271 271 271 271 270 270 270 269 270 269 268 269 269 267 267 266 267 268 268 267 267 267 267 267 267
256 256 256 256 256 256 256 256 256 258 263 265 262 262 262 263 263 263 263 263 264 265 267 267 268 268 269 270 271 272 273 274 274 274 273 271 271 271 271 271 270 270 270 270 269 268 269 268 268 268 269 268 268 269 270 268 267 266 267 266 264 266 267
255 255 255 255 255 255 255 256 256 263 266 267 268 265 263 263 263 264 264 264 264 264 265 266 268 268 269 270 271 271 273 274 274 274 274 274 274 274 272 270 270 270 270 269 269 269 268 268 267 268 269 269 270 269 269 268 267 267 265 264 262 262 266
254 255 255 255 255 255 255 255 260 265 266 267 268 265 262 263 263 263 264 264 265 265 265 266 267 268 269 270 271 271 271 272 273 273 274 274 274 275 276 275 272 270 269 269 268 268 268 268 268 268 268 268 269 268 268 268 267 265 265 264 263 264 263
254 254 254 254 254 254 255 255 261 264 266 267 264 264 263 262 263 263 263 264 265 265 266 266 266 267 268 269 271 271 271 271 271 272 273 274 274 274 276 276 277 276 272 271 269 269 268 268 268 267 268 269 269 270 267 267 265 264 265 265 265 265 265
254 254 254 254 254 254 255 255 260 264 266 263 262 263 265 262 263 264 265 265 265 266 266 267 267 267 267 269 270 270 270 270 270 270 270 271 272 272 273 274 276 275 276 274 271 269 268 269 269 268 269 270 272 269 267 266 264 265 264 265 265 268 268
253 253 254 254 254 254 254 255 263 264 263 263 267 264 267 264 264 265 265 266 266 266 266 267 267 267 268 269 269 270 270 269 269 270 270 270 270 271 271 272 272 273 274 274 272 271 270 270 270 270 271 271 271 270 270 269 267 266 266 266 266 266 263
254 253 253 254 254 254 254 255 263 260 260 262 263 266 263 263 263 263 264 264 265 266 266 267 267 267 268 269 270 271 273 273 270 269 269 269 269 270 271 271 274 275 275 274 274 272 272 271 271 273 271 271 270 270 270 269 266 266 265 265 263 264 261
253 254 253 254 254 254 254 255 260 263 259 263 265 265 261 263 263 264 264 264 265 266 267 267 267 268 268 269 269 271 274 274 274 269 269 269 269 269 269 269 270 275 277 277 277 276 276 276 276 277 277 276 276 272 270 267 265 264 266 265 263 263 262
253 253 254 254 254 254 254 255 259 265 264 263 265 264 262 262 263 263 264 264 265 266 267 268 269 270 269 269 269 273 274 275 274 270 269 269 268 268 267 268 268 269 272 275 277 276 276 276 277 277 277 277 277 276 273 267 265 265 266 265 265 264 262
253 253 254 254 254 256 256 256 259 265 265 264 263 263 261 262 262 263 264 264 265 266 267 267 269 270 270 270 270 274 275 276 274 271 269 268 268 267 267 268 268 267 267 268 269 270 271 271 273 275 274 274 276 276 274 269 268 267 266 265 265 264 262
253 252 253 254 255 255 256 257 258 260 266 266 265 265 263 262 263 263 263 264 264 264 265 267 267 269 271 273 274 274 275 276 275 271 269 268 267 266 266 268 268 268 268 268 268 268 269 269 271 272 273 274 274 274 274 270 270 268 268 266 266 266 266
252 253 253 254 255 256 257 258 258 260 267 266 266 267 267 263 263 264 264 263 264 264 265 266 267 269 271 272 274 274 275 275 275 274 269 269 267 267 268 270 267 268 270 267 267 267 268 268 269 270 271 273 273 273 273 271 271 270 270 268 266 267 267
252 252 253 254 256 257 258 259 260 260 265 268 267 267 269 266 264 266 264 264 264 265 265 266 267 267 269 272 273 274 275 275 275 275 270 269 272 273 273 270 267 267 268 267 266 266 266 267 268 268 269 270 272 272 273 273 271 271 270 270 269 269 267
252 252 253 254 256 257 258 259 260 263 263 266 269 268 268 270 268 269 267 265 265 265 265 266 266 267 270 271 273 274 275 275 275 274 271 274 274 274 273 271 268 267 267 266 266 265 265 266 266 267 268 269 270 272 272 272 272 272 272 272 271 271 270
252 253 254 254 255 257 258 260 261 263 265 265 268 269 269 270 270 270 267 266 264 265 266 266 267 267 271 272 273 274 274 274 274 272 273 274 274 273 272 270 267 267 266 266 265 265 264 264 266 267 267 268 269 271 272 272 273 273 273 273 272 272 272
253 253 254 255 256 257 259 260 262 263 265 266 267 270 269 269 269 268 268 265 263 265 266 268 270 271 272 272 273 273 273 273 273 274 273 273 273 273 271 269 267 266 266 265 265 264 265 265 266 267 268 269 270 271 273 273 272 274 273 273 273 273 273
254 254 255 256 257 258 259 261 262 263 264 265 266 267 267 268 267 267 267 266 265 266 267 269 270 271 271 271 271 270 270 269 270 272 273 273 272 271 270 269 267 266 265 264 265 265 265 265 267 267 268 269 270 270 270 271 271 272 272 272 272 272 272
254 255 255 256 257 259 261 261 262 262 263 264 265 263 263 263 263 265 265 263 262 264 263 265 268 269 270 270 271 271 271 271 271 270 270 269 270 270 270 269 268 267 265 265 265 265 266 266 267 269 269 268 268 268 270 271 271 270 271 272 272 271 270
255 255 256 257 258 260 260 260 261 261 262 264 266 262 261 261 261 261 259 259 260 259 262 264 268 269 269 269 268 268 267 267 267 268 268 267 268 268 270 270 270 270 267 267 267 266 267 267 268 268 268 268 268 268 269 270 270 270 270 272 272 270 269
255 256 257 258 259 259 259 260 260 261 265 266 269 264 261 260 261 261 260 262 264 263 264 265 266 266 266 266 266 265 265 266 265 265 265 266 265 266 266 267 269 268 267 267 267 266 267 267 268 268 269 268 268 268 269 270 270 271 271 272 272 270 270
256 257 258 259 260 261 260 260 261 266 268 269 271 271 271 269 267 266 263 264 265 266 264 265 264 264 264 264 263 263 264 265 265 265 264 265 268 268 267 267 268 269 268 269 268 268 268 268 268 268 269 269 268 269 270 271 271 270 271 270 270 269 270
260 260 260 260 259 261 263 263 264 264 266 268 270 271 271 272 271 270 268 267 265 264 263 264 263 263 263 263 263 264 264 265 266 266 266 265 266 268 269 269 269 269 270 269 269 269 269 269 270 269 270 269 269 269 270 271 271 271 271 271 271 270 270
256 256 257 261 261 261 260 262 263 264 265 267 269 270 270 272 272 271 270 268 268 263 263 264 263 262 262 263 263 264 265 265 265 266 266 267 267 267 269 269 269 270 270 270 270 269 269 270 270 271 270 270 270 271 270 271 271 271 271 271 271 271 271
261 263 263 263 263 264 262 262 262 264 265 266 266 268 267 269 270 269 268 267 264 262 263 264 264 262 262 263 263 264 264 265 265 266 266 267 268 268 268 270 270 271 271 270 270 271 271 271 271 271 271 271 271 271 270 271 271 271 271 272 271 271 271
260 260 259 260 262 263 265 265 265 265 265 265 267 267 266 265 263 267 267 263 259 260 260 262 263 264 264 264 264 264 265 265 266 266 267 267 268 269 269 270 271 271 270 270 271 271 271 271 271 272 271 271 271 271 271 271 271 271 271 271 271 271 270
252 255 256 255 257 259 261 262 262 263 264 265 265 264 263 262 256 256 257 258 258 258 258 258 259 259 260 261 261 262 263 264 265 265 266 267 268 269 269 270 270 270 270 270 271 271 271 271 271 271 271 271 271 270 270 270 271 271 271 270 270 270 269
251 252 254 256 256 257 259 261 261 261 262 264 264 263 259 254 254 254 255 255 256 256 257 257 257 258 258 259 259 260 260 261 262 263 264 266 267 267 268 268 268 268 268 268 269 269 269 270 270 271 271 271 271 271 271 271 271 271 270 270 269 270 269
Wind_Speed
11 12 13 15 15 15 15 14 15 12 12 12 13 12 12 15 15 17 17 16 14 14 11 13 14 15 15 13 12 11 10 10 11 11 10 10 10 11 11 11 12 14 16 12 6 10 7 5 6 6 7 8 6 6 4 5 5 5 4 4 5 5 10
10 12 13 16 16 16 15 15 15 13 11 13 13 15 13 13 16 16 18 15 16 14 11 12 14 16 15 13 14 13 12 11 11 10 11 11 11 11 11 12 12 13 13 15 7 8 7 6 6 8 8 9 9 8 6 6 5 3 4 5 5 5 6
13 13 14 16 16 16 15 15 14 14 14 12 14 16 16 16 15 16 16 18 18 17 14 13 15 15 15 12 13 13 13 12 12 11 12 13 11 12 13 12 13 12 13 14 12 9 9 8 7 9 9 8 8 6 6 7 5 5 4 5 5 6 6
15 14 17 16 16 15 15 16 15 15 13 14 13 13 14 13 14 14 14 16 14 16 17 18 16 15 14 13 14 14 13 12 12 12 12 13 12 13 13 13 12 14 12 12 13 10 10 8 8 8 9 6 7 8 7 6 4 4 4 4 5 6 6
13 15 15 15 16 17 16 16 16 17 16 15 15 16 16 14 13 13 13 14 15 18 17 20 19 18 14 14 15 15 14 12 14 13 13 13 12 12 12 11 12 13 12 12 14 12 8 8 8 8 7 8 8 6 5 4 5 5 6 5 4 4 6
15 14 16 17 17 17 17 17 17 17 18 18 17 17 17 18 18 16 14 15 17 14 17 16 20 19 15 15 15 16 15 14 15 14 14 14 13 12 11 12 13 12 13 13 13 12 10 9 9 5 5 7 8 8 6 5 4 4 4 4 5 5 5
14 15 15 17 17 17 18 18 17 17 17 18 19 17 16 16 18 20 18 16 15 16 17 16 19 21 20 16 17 16 16 14 14 13 15 14 14 13 12 13 13 12 13 13 13 11 11 10 8 9 9 6 7 8 8 8 5 6 5 5 5 6 4
15 15 14 16 17 17 16 17 17 16 14 14 13 15 17 17 19 20 20 20 17 15 15 18 17 17 19 20 16 17 16 16 14 12 13 13 12 12 14 14 13 13 13 13 13 12 11 9 9 7 8 4 7 5 5 6 6 8 6 5 5 6 4
16 12 15 13 12 14 13 12 14 12 13 14 15 16 17 18 18 20 21 20 20 16 16 15 15 18 19 21 25 27 24 20 18 13 13 13 12 13 14 14 13 13 12 12 12 12 10 9 10 10 8 7 8 10 10 6 7 7 5 4 4 5 4
13 13 14 15 14 12 12 12 11 19 33 30 22 20 18 19 20 20 19 19 18 18 16 16 15 16 29 33 34 34 31 30 29 26 18 13 12 14 14 15 14 13 13 12 12 12 11 11 11 10 10 9 9 7 6 6 7 7 6 3 4 4 5
14 14 12 14 16 15 12 12 12 30 32 34 35 26 21 21 20 20 19 18 17 16 17 16 17 17 22 28 29 27 33 32 33 32 31 30 25 19 16 15 15 15 13 12 12 11 11 12 11 10 10 10 9 8 9 8 7 7 4 5 5 6 4
14 14 13 13 13 15 14 13 23 33 33 34 36 29 21 17 17 17 17 18 17 15 15 15 16 15 16 16 19 20 21 26 30 32 32 33 31 32 30 26 18 14 13 13 12 11 12 11 11 10 9 9 8 8 7 7 7 7 7 6 6 4 4
16 15 14 14 15 16 16 14 27 33 35 34 33 36 29 18 18 17 17 16 17 17 17 15 14 15 15 15 26 23 20 19 20 27 33 33 33 34 35 33 33 28 17 12 13 13 12 12 10 9 10 9 8 7 8 7 7 6 6 6 6 6 4
14 16 15 14 15 15 16 14 25 34 35 28 26 35 33 18 18 15 16 18 17 15 15 17 16 16 15 14 16 16 18 18 17 15 17 19 19 18 22 30 32 32 32 22 15 13 13 11 9 11 8 8 9 10 10 8 8 6 7 6 8 8 6
14 15 15 15 14 14 16 17 31 36 28 35 30 32 32 17 14 14 14 13 15 17 15 14 15 15 16 15 16 14 18 17 16 16 16 16 17 15 14 14 15 16 16 16 14 13 13 10 11 11 10 8 10 12 9 10 10 11 9 5 1 1 2
13 14 16 17 16 16 17 18 33 28 32 32 32 35 21 16 15 13 12 12 13 12 13 13 13 13 15 15 15 19 29 24 17 16 17 17 15 13 12 12 13 16 15 13 10 11 11 10 11 13 11 9 9 8 8 7 3 3 4 5 6 6 1
13 13 14 16 16 16 17 18 29 29 24 31 34 20 17 16 14 13 12 14 13 13 13 14 14 15 14 14 13 16 27 29 25 16 17 16 15 13 10 9 8 17 22 23 21 19 22 22 22 23 23 20 21 13 10 7 7 7 7 6 6 5 2
13 14 15 15 16 17 18 19 27 37 33 26 37 30 21 14 12 13 14 13 14 13 13 16 26 24 16 14 13 20 27 28 25 16 16 15 15 15 12 9 6 5 8 15 19 21 20 22 25 25 25 24 23 23 16 11 11 8 8 8 6 7 6
13 14 14 15 16 23 23 19 24 35 36 32 33 29 18 15 12 13 12 12 13 13 12 12 14 23 20 16 16 26 27 29 24 13 13 13 12 13 13 9 7 7 6 5 5 5 5 2 6 10 13 14 23 23 20 13 11 8 9 8 7 6 2
14 15 15 16 16 17 19 19 20 24 38 29 26 31 22 14 12 11 12 11 12 11 11 10 10 13 22 24 26 26 28 28 29 13 12 11 10 10 10 7 8 9 8 8 8 7 5 6 5 1 7 11 13 14 13 12 10 8 9 9 8 6 6
13 14 16 17 17 14 17 18 20 23 36 35 35 35 30 13 12 11 10 10 11 10 10 10 9 8 15 22 23 26 27 28 27 18 12 12 10 10 12 12 9 11 13 8 6 6 6 6 6 5 3 6 10 9 9 11 11 9 9 9 8 7 7
15 13 14 15 17 15 17 19 24 22 29 35 33 30 34 18 11 11 10 11 10 9 9 9 9 7 12 20 22 22 25 24 24 21 12 12 18 20 21 12 8 7 7 6 7 6 6 6 7 6 7 4 6 9 9 9 9 10 10 8 8 9 8
14 14 13 15 15 15 17 17 19 26 24 31 34 32 29 26 16 18 12 8 8 6 7 8 7 8 13 18 21 22 22 21 22 16 12 22 23 23 23 15 8 8 7 7 7 7 7 8 7 8 7 6 3 6 9 8 9 10 10 9 7 7 7
12 13 15 14 16 16 16 16 16 21 28 26 31 30 27 22 17 16 9 6 2 4 6 7 7 7 15 18 21 21 18 18 17 9 19 23 23 23 19 9 9 8 8 8 8 8 8 8 8 7 7 6 5 4 8 8 8 10 10 9 7 8 8
11 13 13 14 14 17 16 16 14 15 21 29 29 27 21 17 15 12 13 4 2 4 5 9 14 17 17 19 20 19 17 13 13 16 15 19 20 18 10 8 9 9 8 8 8 8 7 7 7 8 7 7 7 5 4 8 7 8 9 8 8 8 8
13 12 14 16 15 15 16 15 16 16 18 19 17 13 14 13 11 10 9 7 5 9 14 15 15 17 17 15 12 7 2 1 0 4 8 12 15 8 7 7 9 8 9 9 9 8 8 7 6 7 8 7 6 7 4 5 8 7 7 8 7 6 6
13 14 14 14 15 16 16 16 16 17 18 19 15 6 7 7 5 7 7 6 4 5 5 8 9 7 9 6 8 8 5 4 4 2 2 0 2 3 5 7 10 10 10 10 8 8 7 7 6 5 6 6 7 7 7 5 4 5 5 6 7 7 4
13 14 14 14 14 14 13 14 17 17 19 22 15 5 5 3 4 4 5 4 5 4 4 5 7 7 4 3 1 1 2 2 3 3 3 3 3 3 3 6 13 12 10 9 9 8 6 6 6 7 7 7 7 8 8 7 6 5 5 5 6 5 5
14 14 14 14 12 13 14 16 17 19 28 27 19 8 3 5 5 5 3 6 7 4 4 2 1 2 1 2 2 3 3 3 3 2 2 2 2 3 3 3 5 7 8 8 7 7 7 7 7 7 8 8 9 9 9 7 7 7 6 5 6 6 5
15 14 15 14 12 11 14 15 18 30 33 39 39 30 9 10 11 8 6 5 6 4 1 0 2 2 3 3 4 3 2 2 2 2 2 2 3 4 3 3 4 6 8 8 8 8 8 8 8 8 8 8 9 8 8 10 11 8 8 6 7 7 6
28 29 31 21 16 19 30 34 37 39 35 35 37 38 30 9 6 11 8 5 3 0 1 1 2 1 2 2 2 1 0 1 2 5 5 4 4 5 6 6 6 6 7 8 8 8 8 7 8 9 8 9 9 9 9 9 9 8 8 8 7 8 7
21 22 24 31 26 23 18 29 35 38 34 38 36 35 35 35 15 13 10 7 5 2 2 2 2 1 1 1 1 2 3 4 4 3 4 5 6 6 6 6 6 6 6 8 8 8 8 8 7 8 9 8 8 9 9 9 8 8 9 8 8 8 7
27 30 31 33 30 34 24 29 32 34 26 26 31 35 33 28 35 33 27 18 8 4 5 1 3 3 1 1 3 3 4 4 4 4 4 4 5 6 7 6 6 7 7 7 8 7 7 8 7 7 9 8 8 9 9 8 8 8 8 7 8 7 7
26 30 32 30 32 31 33 35 32 33 34 35 32 33 31 25 23 31 31 23 11 11 9 9 7 5 4 3 3 3 3 4 4 5 5 5 5 5 5 6 6 7 6 6 8 7 7 6 6 7 7 7 8 8 8 8 7 8 8 7 8 8 7
19 24 28 24 23 29 33 33 34 33 31 32 32 31 28 25 18 17 15 15 13 12 11 11 10 9 9 8 8 7 6 5 4 3 5 7 6 6 6 6 7 7 6 6 6 7 7 6 5 7 7 8 8 8 8 7 7 7 7 7 7 7 6
12 12 18 27 24 29 31 32 33 31 29 29 30 29 28 18 14 13 12 12 11 11 10 9 9 9 9 8 8 7 6 6 5 5 3 1 5 5 5 5 5 4 5 5 5 5 6 6 6 6 7 7 8 9 9 8 8 7 7 6 6 6 6
Wind_Direction
320 316 315 313 310 308 306 304 304 302 299 296 295 292 293 297 298 294 291 288 280 272 262 255 249 245 240 232 232 231 228 227 226 225 225 224 225 228 228 227 233 244 258 262 213 241 234 212 192 219 202 208 200 208 217 219 212 213 213 230 246 252 268
313 313 311 311 309 306 303 302 300 298 295 294 294 294 294 291 291 289 287 286 280 273 266 257 249 246 241 231 232 228 230 225 226 222 222 226 223 227 229 222 228 240 247 260 233 235 238 226 197 226 200 206 211 220 208 218 223 217 214 227 235 247 252
314 310 309 307 305 305 302 300 299 299 299 293 292 290 287 284 284 283 284 284 281 281 274 260 252 246 240 232 230 229 229 225 226 222 224 226 224 228 229 224 224 232 242 248 251 231 239 222 218 222 225 202 215 213 209 219 222 221 228 221 230 241 246
312 308 308 305 304 303 303 302 301 297 291 290 286 281 279 275 271 269 272 274 277 280 280 275 267 255 244 235 233 229 228 224 222 222 225 226 226 227 228 227 224 226 236 241 252 233 231 224 223 226 228 211 213 200 216 211 220 221 231 234 237 240 248
312 310 308 307 307 306 304 302 301 300 297 295 294 292 291 286 279 272 270 270 272 278 279 279 273 265 251 240 236 232 230 222 220 220 223 225 226 226 227 228 225 226 227 235 240 246 227 227 223 224 214 203 209 215 221 217 217 216 224 237 240 245 252
310 310 307 305 305 303 302 301 300 298 297 296 295 294 290 289 289 287 283 280 275 271 269 267 269 268 259 245 233 232 229 222 221 219 220 223 225 225 225 227 226 224 225 228 236 238 238 221 222 214 212 197 199 205 212 229 235 247 244 240 262 252 247
304 305 305 303 302 301 300 300 297 295 293 292 290 287 282 280 278 277 276 268 264 261 261 260 263 264 263 250 236 233 229 224 222 219 221 220 223 223 225 225 226 223 224 226 232 233 231 232 219 214 223 198 195 206 206 214 221 242 233 222 225 260 259
304 302 301 300 299 297 296 294 293 289 283 278 274 275 273 270 271 270 271 271 265 256 255 258 260 255 251 254 250 238 230 225 224 220 222 221 220 223 223 225 225 223 222 224 227 229 228 222 226 213 222 158 176 202 231 214 207 236 231 227 234 227 245
302 296 294 286 280 286 287 283 283 284 284 279 271 268 265 268 267 271 275 274 273 264 257 254 253 258 267 265 256 247 239 232 227 223 225 221 218 222 224 224 224 221 220 222 223 228 222 222 220 218 202 193 195 204 215 193 199 232 229 232 251 261 230
293 291 290 291 286 280 279 281 279 286 288 286 284 281 277 276 275 274 272 272 273 272 267 260 254 253 255 256 255 253 247 242 238 233 226 226 221 224 222 223 221 218 218 218 220 221 217 219 222 214 209 208 212 208 205 182 189 211 220 219 258 277 254
295 292 288 287 290 290 283 278 277 289 291 291 289 287 283 279 276 272 269 266 260 260 261 260 261 257 255 256 254 251 246 242 241 239 238 233 226 218 217 222 217 218 213 215 219 218 214 220 220 213 207 215 209 191 198 206 193 204 190 203 230 257 292
292 291 291 289 285 284 284 281 290 295 295 294 291 288 284 283 282 279 276 274 267 261 259 258 259 260 262 257 250 241 238 239 239 240 242 244 242 241 224 215 214 215 213 212 216 214 216 214 219 210 202 213 204 200 194 202 192 194 192 208 211 221 226
297 294 290 288 288 289 287 283 293 296 295 293 291 289 287 280 273 269 267 262 262 261 262 266 264 264 257 256 256 250 241 234 233 237 239 242 243 243 239 227 218 213 212 207 212 217 215 212 207 204 211 204 198 182 196 188 194 195 197 203 212 220 228
291 293 291 288 288 286 286 281 292 295 294 291 290 290 289 281 274 270 269 268 263 261 261 258 261 261 261 258 252 244 237 229 227 226 233 239 240 239 237 233 229 223 215 206 207 208 216 207 192 208 204 199 185 184 197 178 200 194 202 202 215 220 219
298 294 292 289 286 285 286 287 292 294 292 293 291 290 292 289 284 277 276 276 273 270 269 268 269 266 264 262 253 237 227 223 221 222 225 231 232 232 229 227 229 229 228 215 206 206 209 202 200 207 204 191 188 192 191 185 194 195 201 197 194 324 255
291 291 292 291 289 287 284 285 292 292 293 291 290 291 292 288 284 279 270 267 266 262 260 260 257 258 257 255 254 232 227 217 212 218 219 223 225 225 222 224 224 222 221 221 211 205 203 201 202 203 204 181 180 184 184 185 162 121 135 153 188 218 265
293 293 291 289 289 287 285 286 290 292 289 289 290 290 290 286 282 278 277 277 274 269 264 261 255 254 251 248 245 228 228 228 217 209 214 215 217 216 213 213 211 225 225 222 217 205 201 203 208 212 211 203 191 183 175 156 159 183 168 168 189 224 191
294 292 290 287 287 285 286 287 290 293 293 289 291 288 286 283 278 274 275 273 271 269 267 263 260 252 244 237 230 227 228 230 229 212 205 207 209 210 209 204 183 202 234 239 229 223 216 211 212 217 218 209 205 199 178 172 190 184 167 186 188 208 204
294 292 290 286 285 288 288 287 290 293 294 291 288 286 282 279 271 271 271 277 277 276 273 269 265 261 249 228 225 227 229 228 226 207 193 197 199 205 206 198 174 185 206 221 239 256 236 244 242 237 219 209 209 206 193 182 187 174 178 179 189 189 134
295 293 291 292 290 290 289 288 288 289 293 290 287 286 282 273 272 269 273 275 277 277 278 274 265 258 263 245 225 225 228 229 224 194 182 182 192 194 200 183 185 197 199 210 216 225 215 226 217 227 241 208 205 209 191 180 188 176 174 180 186 180 174
293 294 293 295 291 286 288 288 289 291 295 293 291 287 286 279 270 266 263 266 267 270 273 275 267 254 251 256 239 223 225 226 227 195 172 180 186 187 195 185 192 202 201 204 205 205 212 215 210 208 263 220 193 200 187 178 184 176 184 180 175 179 180
300 295 294 294 294 292 290 291 288 290 295 296 293 291 289 284 266 257 253 257 261 263 266 261 260 246 243 250 249 231 225 224 229 200 164 184 190 194 202 189 180 182 187 190 192 196 206 205 201 207 213 241 203 186 188 173 181 182 185 186 184 178 182
300 302 301 301 301 300 297 296 298 295 294 297 298 294 292 290 284 270 265 256 260 270 272 270 254 243 245 246 249 241 229 225 225 215 167 188 192 200 203 192 163 173 182 187 191 194 203 202 201 198 203 204 200 191 192 178 168 185 184 186 184 187 185
303 306 306 307 306 305 303 300 299 298 297 297 297 297 292 294 288 279 269 256 233 287 295 281 246 238 241 243 246 247 240 228 223 203 179 191 198 196 194 175 157 171 182 185 190 195 197 199 197 196 199 197 190 192 194 188 173 173 185 186 179 189 204
302 305 305 304 304 303 303 300 299 301 303 304 303 300 296 299 293 282 284 309 318 286 296 287 261 241 240 239 242 245 246 238 231 213 196 196 201 199 192 166 157 171 173 180 189 194 197 195 196 197 201 197 191 190 194 189 183 169 171 182 185 190 204
308 307 308 307 304 302 301 304 310 310 310 307 300 289 281 286 292 287 279 273 253 279 282 297 292 253 242 246 253 263 303 54 63 240 216 209 205 187 187 152 165 161 171 182 187 193 198 200 189 191 206 201 177 183 194 173 164 168 167 177 181 186 203
311 311 311 306 304 307 312 312 316 317 318 316 308 247 251 252 269 273 267 253 283 269 287 298 299 259 240 237 247 241 221 173 176 180 214 219 160 157 172 155 167 169 180 185 185 192 195 193 192 185 186 195 183 184 191 200 156 156 173 155 170 178 154
312 313 309 308 307 310 311 320 323 322 324 322 309 245 225 226 223 243 223 250 252 245 267 277 290 269 234 249 269 351 39 67 81 100 88 106 115 114 159 163 176 182 182 184 185 184 181 181 184 188 186 184 189 191 191 191 195 174 174 165 148 154 174
309 307 307 302 310 320 325 327 328 324 323 335 346 217 230 205 226 218 215 234 235 247 267 285 332 67 107 114 105 88 90 80 87 90 133 147 134 153 169 169 166 184 187 183 176 177 180 184 183 188 182 182 186 192 191 184 193 195 174 168 168 186 186
310 318 326 327 324 326 333 331 327 330 338 349 360 0 290 244 215 198 202 226 231 230 319 40 64 73 100 101 97 95 121 162 160 175 191 196 200 196 190 190 193 194 189 181 181 183 182 186 187 186 182 178 184 180 180 183 186 180 175 181 176 187 193
332 336 343 343 335 336 339 344 344 344 345 358 3 2 3 327 208 181 180 171 178 35 4 50 80 78 83 105 106 122 210 229 214 198 194 199 201 209 212 208 201 200 185 184 182 182 185 192 188 181 182 177 179 176 168 168 174 166 171 187 182 181 188
329 336 342 348 346 346 342 348 349 347 355 2 6 6 9 27 36 156 132 136 141 64 4 56 87 99 161 147 175 216 210 225 233 242 201 196 194 208 212 202 198 195 188 187 182 180 185 194 202 173 174 172 171 168 162 166 165 166 174 183 172 179 180
342 347 348 349 348 349 347 351 352 353 358 2 7 9 10 24 39 40 35 35 28 17 351 344 185 198 198 207 232 235 231 236 230 234 236 236 221 199 199 195 191 189 191 185 189 180 183 188 195 167 163 164 162 159 162 166 166 165 168 172 166 171 169
349 349 349 347 348 349 351 355 355 356 1 6 9 9 9 18 31 31 30 32 22 14 9 3 12 10 357 322 287 268 252 241 236 234 232 230 235 226 185 183 177 181 187 182 186 188 188 186 174 163 156 155 156 159 159 163 160 157 160 163 158 157 154
336 343 345 346 345 347 349 355 356 358 1 6 10 11 6 23 29 20 8 11 7 14 13 8 7 7 4 3 3 356 348 338 314 273 236 225 219 191 175 167 174 181 177 181 175 180 183 182 167 159 155 152 153 151 155 155 150 151 152 149 139 140 138
330 325 336 341 342 346 349 354 357 358 1 7 10 12 15 24 16 15 8 7 5 4 4 8 9 9 3 359 359 353 352 344 334 327 333 69 144 140 141 147 142 142 149 146 144 151 161 160 156 153 149 146 147 152 149 145 147 147 144 142 142 140 144